Torna al catalogo

THOR ABLESTAR DEB

AttivoLEO
NORAD 336·DEBRIS·🇺🇸 United States

Lanciato Jun 29, 1961 da Cape Canaveral Space Force Station

Loading…

Prossimi Passaggi (prossime 24 ore)

TLE

AggiornatoSource: Space-Track

Epoca: Sep 13, 2026, 23:53 UTC

1 00336U 61015DN  26256.99540683  .00000022  00000-0  10527-3 0  9992
2 00336  67.0329 346.9864 0071901  71.4310 102.9797 13.69236853251352

Traccia THOR ABLESTAR DEB in tempo reale con AllMySat

Download on the App Store